Saguache, CO

8:25 PM MDT on May 23, 2017 (GMT -0600)
Saguache

Weather History for K04V - January, 2014

Change the Weather History Date:

Monday, January 27, 2014

  Actual Average (KALS) Record (KALS)
Temperature  
Mean Temperature 22 °F -  
Max Temperature 37 °F 36 °F 55 °F (1970)
Min Temperature 6 °F 2 °F -35 °F (1948)
Degree Days  
Heating Degree Days 44    
Moisture  
Dew Point 13 °F    
Average Humidity 71    
Maximum Humidity 86    
Minimum Humidity 48    
Precipitation  
Precipitation 0.00 in - - ()
Sea Level Pressure  
Sea Level Pressure 29.91 in    
Wind  
Wind Speed 8 mph (North)    
Max Wind Speed 39 mph    
Max Gust Speed 48 mph    
Visibility 9 miles    
Events Snow    
Averages and records for this station are not official NWS values.
T = Trace of Precipitation, MM = Missing Value Source: NWS Daily Summary

Daily Weather History Graph

Daily Weather History Graph

Search for Another Location

Airport or City:

Trip Planner

Search our weather history database for the weather conditions in past years. The results will help you decide how hot, cold, wet, or windy it might be!

Date:

Astronomy

Jan. 27, 2014 Rise Set
Actual Time 7:13 AM MST 5:22 PM MST
Civil Twilight 6:45 AM MST 5:50 PM MST
Nautical Twilight 6:13 AM MST 6:22 PM MST
Astronomical Twilight 5:42 AM MST 6:53 PM MST
Moon 3:56 AM MST (1/27) 2:11 PM MST (1/27)
Length of Visible Light 11h 05m
Length of Day
10h 08m
Waning Crescent, 14% of the Moon is Illuminated
Jan 27
Waning Crescent
Jan 30
New
Feb 6
First Quarter
Feb 14
Full
Feb 22
Last Quarter

Hourly Weather History & Observations

Time (MST) Temp. Windchill Dew Point Humidity Pressure Visibility Wind Dir Wind Speed Gust Speed Precip Events Conditions
12:11 AM 15.8 °F - 10.4 °F 79% 30.01 in 10.0 mi Calm Calm - N/A   Clear
12:32 AM 15.8 °F 8.6 °F 8.6 °F 73% 30.00 in 10.0 mi NNW 4.6 mph - N/A   Clear
12:52 AM 12.2 °F - 6.8 °F 79% 30.00 in 10.0 mi Calm Calm - N/A   Clear
1:11 AM 10.4 °F -3.3 °F 6.8 °F 85% 30.00 in 10.0 mi East 10.4 mph - N/A   Clear
1:32 AM 12.2 °F 1.7 °F 6.8 °F 79% 30.00 in 10.0 mi East 6.9 mph - N/A   Clear
1:52 AM 14.0 °F 8.2 °F 8.6 °F 79% 30.00 in 10.0 mi ESE 3.5 mph - N/A   Clear
2:12 AM 14.0 °F - 8.6 °F 79% 30.00 in 10.0 mi Calm Calm - N/A   Clear
2:31 AM 12.2 °F - 8.6 °F 85% 30.00 in 10.0 mi Calm Calm - N/A   Clear
2:51 AM 6.8 °F -0.1 °F 3.2 °F 85% 30.00 in 10.0 mi North 3.5 mph - N/A   Clear
3:11 AM 10.4 °F 0.8 °F 6.8 °F 85% 29.99 in 10.0 mi NW 5.8 mph - N/A   Clear
3:32 AM 8.6 °F -2.6 °F 5.0 °F 85% 29.98 in 10.0 mi North 6.9 mph - N/A   Clear
3:52 AM 10.4 °F 2.2 °F 6.8 °F 85% 29.98 in 10.0 mi NW 4.6 mph - N/A   Clear
4:12 AM 10.4 °F -0.4 °F 5.0 °F 79% 29.98 in 10.0 mi NE 6.9 mph - N/A   Clear
4:32 AM 14.0 °F 5.1 °F 5.0 °F 67% 29.98 in 10.0 mi North 5.8 mph - N/A   Clear
4:52 AM 10.4 °F 4.0 °F 5.0 °F 79% 29.98 in 10.0 mi WNW 3.5 mph - N/A   Clear
5:12 AM 10.4 °F -3.3 °F 5.0 °F 79% 29.98 in 10.0 mi NNW 10.4 mph - N/A   Clear
5:32 AM 12.2 °F -0.2 °F 6.8 °F 79% 29.98 in 10.0 mi NNW 9.2 mph - N/A   Clear
5:52 AM 10.4 °F 0.8 °F 5.0 °F 79% 29.98 in 10.0 mi WNW 5.8 mph - N/A   Clear
6:12 AM 10.4 °F -2.4 °F 5.0 °F 79% 29.98 in 10.0 mi NNW 9.2 mph - N/A   Clear
6:32 AM 8.6 °F -4.7 °F 3.2 °F 79% 29.98 in 10.0 mi NW 9.2 mph - N/A   Clear
6:52 AM 8.6 °F -4.7 °F 3.2 °F 79% 29.98 in 10.0 mi NNW 9.2 mph - N/A   Clear
7:12 AM 6.8 °F -6.9 °F 1.4 °F 79% 29.98 in 10.0 mi NNW 9.2 mph - N/A   Clear
7:32 AM 8.6 °F -3.7 °F 3.2 °F 79% 29.98 in 10.0 mi North 8.1 mph - N/A   Clear
7:51 AM 10.4 °F - 5.0 °F 79% 29.98 in 10.0 mi Calm Calm - N/A   Clear
8:12 AM 8.6 °F 0.1 °F 3.2 °F 79% 29.99 in 10.0 mi East 4.6 mph - N/A   Clear
8:32 AM 10.4 °F 2.2 °F 5.0 °F 79% 29.99 in 10.0 mi East 4.6 mph - N/A   Clear
8:34 AM 10.4 °F 2.2 °F 5.0 °F 79% 29.99 in 10.0 mi East 4.6 mph - N/A   Clear
9:09 AM 14.0 °F 5.1 °F 6.8 °F 73% 30.00 in 10.0 mi SE 5.8 mph - N/A   Clear
9:28 AM 15.8 °F 8.6 °F 8.6 °F 73% 30.00 in 10.0 mi SE 4.6 mph - N/A   Clear
9:52 AM 17.6 °F 12.3 °F 8.6 °F 68% 29.99 in 10.0 mi East 3.5 mph - N/A   Clear
10:11 AM 19.4 °F 10.4 °F 10.4 °F 68% 29.98 in 10.0 mi ESE 6.9 mph - N/A   Clear
10:17 AM 19.4 °F 9.5 °F 12.2 °F 74% 29.98 in 10.0 mi ESE 8.1 mph - N/A   Clear
10:52 AM 24.8 °F 17.9 °F 14.0 °F 64% 29.97 in 10.0 mi SSE 5.8 mph - N/A   Scattered Clouds
11:12 AM 24.8 °F 17.9 °F 15.8 °F 69% 29.96 in 10.0 mi ESE 5.8 mph - N/A   Scattered Clouds
11:32 AM 23.0 °F 15.8 °F 14.0 °F 68% 29.95 in 10.0 mi South 5.8 mph - N/A   Mostly Cloudy
11:51 AM 21.2 °F - 14.0 °F 74% 29.94 in 10.0 mi Calm Calm - N/A   Overcast
12:11 PM 26.6 °F 20.0 °F 15.8 °F 64% 29.92 in 10.0 mi ESE 5.8 mph - N/A   Scattered Clouds
12:32 PM 26.6 °F 19.1 °F 15.8 °F 64% 29.91 in 10.0 mi SSE 6.9 mph - N/A   Mostly Cloudy
12:51 PM 28.4 °F 19.7 °F 15.8 °F 59% 29.90 in 10.0 mi SE 9.2 mph - N/A   Overcast
1:11 PM 26.6 °F 17.5 °F 15.8 °F 64% 29.88 in 10.0 mi SE 9.2 mph - N/A   Overcast
1:32 PM 24.8 °F 15.3 °F 17.6 °F 74% 29.87 in 10.0 mi SSE 9.2 mph - N/A   Mostly Cloudy
1:52 PM 26.6 °F 16.2 °F 17.6 °F 69% 29.86 in 10.0 mi SE 11.5 mph - N/A   Overcast
2:12 PM 26.6 °F 17.5 °F 17.6 °F 69% 29.85 in 10.0 mi SSE 9.2 mph - N/A   Overcast
2:32 PM 26.6 °F 16.8 °F 17.6 °F 69% 29.84 in 10.0 mi SSE 10.4 mph - N/A   Overcast
2:52 PM 26.6 °F 16.8 °F 17.6 °F 69% 29.84 in 10.0 mi SSE 10.4 mph - N/A   Overcast
3:12 PM 26.6 °F 21.2 °F 19.4 °F 74% 29.84 in 10.0 mi SE 4.6 mph 18.4 mph N/A   Scattered Clouds
3:32 PM 37.4 °F 26.1 °F 21.2 °F 52% 29.82 in 10.0 mi NW 24.2 mph 33.4 mph N/A   Scattered Clouds
3:52 PM 37.4 °F 26.1 °F 21.2 °F 52% 29.81 in 10.0 mi NW 24.2 mph 32.2 mph N/A   Clear
4:12 PM 37.4 °F 23.5 °F 19.4 °F 48% 29.80 in 10.0 mi NW 39.1 mph 48.3 mph N/A   Clear
4:32 PM 35.6 °F 23.2 °F 19.4 °F 52% 29.80 in 10.0 mi NW 26.5 mph 41.4 mph N/A   Clear
4:52 PM 35.6 °F 22.1 °F 17.6 °F 48% 29.80 in 10.0 mi NW 32.2 mph 43.7 mph N/A   Clear
5:12 PM 33.8 °F 21.6 °F 17.6 °F 52% 29.79 in 10.0 mi NW 23.0 mph 28.8 mph N/A   Clear
5:31 PM 33.8 °F 23.5 °F 17.6 °F 52% 29.79 in 10.0 mi NW 16.1 mph 26.5 mph N/A   Clear
5:52 PM 33.8 °F 23.2 °F 17.6 °F 52% 29.80 in 10.0 mi NNW 17.3 mph 39.1 mph N/A   Scattered Clouds
6:12 PM 33.8 °F 23.5 °F 17.6 °F 52% 29.80 in 10.0 mi NNW 16.1 mph 31.1 mph N/A   Scattered Clouds
6:32 PM 33.8 °F 20.1 °F 17.6 °F 52% 29.80 in 10.0 mi NW 29.9 mph 38.0 mph N/A   Scattered Clouds
6:52 PM 33.8 °F 20.1 °F 15.8 °F 48% 29.80 in 10.0 mi NW 29.9 mph 38.0 mph N/A   Scattered Clouds
7:12 PM 33.8 °F 21.0 °F 17.6 °F 52% 29.81 in 10.0 mi NNW 25.3 mph 31.1 mph N/A   Overcast
7:32 PM 33.8 °F 21.9 °F 19.4 °F 56% 29.81 in 10.0 mi NNW 21.9 mph 27.6 mph N/A   Overcast
7:52 PM 32.0 °F 18.4 °F 21.2 °F 64% 29.83 in 10.0 mi NNW 26.5 mph 36.8 mph N/A   Overcast
8:12 PM 32.0 °F 17.4 °F 23.0 °F 69% 29.83 in 10.0 mi NW 31.1 mph 36.8 mph N/A   Overcast
8:32 PM 30.2 °F 16.2 °F 23.0 °F 75% 29.84 in 7.0 mi NNW 25.3 mph 38.0 mph N/A Snow Light Snow
8:52 PM 30.2 °F 18.5 °F 24.8 °F 80% 29.85 in 4.0 mi NNW 17.3 mph 25.3 mph N/A Snow Light Snow
9:12 PM 30.2 °F 18.1 °F 24.8 °F 80% 29.86 in 5.0 mi NW 18.4 mph - N/A   Overcast
9:32 PM 28.4 °F 14.7 °F 24.8 °F 86% 29.86 in 3.0 mi NW 21.9 mph 27.6 mph N/A Snow Light Snow
9:52 PM 26.6 °F 18.2 °F 23.0 °F 86% 29.86 in 10.0 mi WNW 8.1 mph - N/A   Scattered Clouds
10:12 PM 28.4 °F 16.6 °F 17.6 °F 64% 29.86 in 10.0 mi NNW 16.1 mph 27.6 mph N/A   Scattered Clouds
10:31 PM 28.4 °F 18.0 °F 17.6 °F 64% 29.86 in 10.0 mi NW 12.7 mph 21.9 mph N/A   Scattered Clouds
10:52 PM 30.2 °F 17.8 °F 17.6 °F 60% 29.88 in 10.0 mi NNW 19.6 mph 28.8 mph N/A   Mostly Cloudy
11:12 PM 26.6 °F 13.4 °F 21.2 °F 80% 29.90 in 3.0 mi North 18.4 mph 29.9 mph N/A Snow Light Snow
11:32 PM 26.6 °F 13.1 °F 21.2 °F 80% 29.91 in 3.0 mi NW 19.6 mph 25.3 mph N/A Snow Snow
11:52 PM 24.8 °F 11.9 °F 21.2 °F 86% 29.91 in 2.5 mi WNW 16.1 mph - N/A Snow Light Snow